Weather in Chavanga

Russia / Murmansk Oblast     66˚06′33″N   37˚45′34″E
temp.,
°C
wind,
m/s
gust,
m/s
humid.,
%
clouds,
%
prec.,
mm/h
press.,
hPa
HPBL,
m
17 january, sun
sun1700:00−4˚w4589100 0.2 1010459
03:00−4˚wnw5690100 0.3 1009382
06:00−4˚wnw6893100 0.3 1006396
09:00−3˚wnw7892100 0.6 1005337
12:00−3˚nw6888100 0.0 1004324
15:00−2˚nw6987100 0.1 1004364
18:00−3˚nnw6992100 0.1 1005392
21:00−4˚nne4493100 0.6 1006295
18 january, mon
mon1800:00−5˚e6790100 0.4 1007335
03:00−7˚e7891100 0.4 1009393
06:00−8˚ese8993100 0.1 1009408
09:00−9˚ese8992100 0.2 1010396
12:00−8˚se8990100 0.1 1010476
15:00−8˚sse8993100 0.3 1010446
18:00−6˚s7893100 0.6 1008471
21:00−4˚ssw6894100 1.7 1007484
19 january, tue
tue1900:00−4˚wsw6894100 1.9 1007495
03:00−3˚w7887100 2.3 1006611
06:00−4˚w7886100 0.1 1005645
09:00−4˚wsw6785100 0.1 1006633
12:00−5˚wsw5686100 0.1 1006607
15:00−5˚wsw4587100 0.3 1006506
18:00−5˚wnw3487100 0.1 1006425
21:00−6˚nnw3389100 0.3 1007254
20 january, wed
wed2000:00−7˚nw3489100 0.1 1007294
03:00−7˚n3390100 0.4 1007239
06:00−8˚nne448999 0.1 1008296
09:00−9˚ne689199 0.1 1009307
12:00−11˚ene8109296 0.0 1011361
15:00−12˚ene8109496 0.0 1013429
18:00−13˚ene8119695 0.0 1015514
21:00−14˚ene8119797 0.1 1016569
21 january, thu
thu2100:00−15˚ene91199100 0.1 1017597
03:00−15˚ene912100100 0.2 1018594
06:00−16˚ene1012100100 0.1 1019578
09:00−16˚e1012100100 0.2 1020615
12:00−17˚e911100100 0.1 1021609
15:00−17˚e911100100 0.2 1022571
18:00−17˚e911100100 0.1 1023575
21:00−17˚e912100100 0.1 1023555